CZ-6A DEB

Satellite information

Favourite Embed

Satellite Type and Status

DEBRISIN ORBIT

Key statistics

Satellite CZ-6A DEB at a glance.

Uptime

967

Days in orbit

Revolutions

≈ 14.7

Per day

Orbit

SSO

Sun Synchronous Orbit

Inclination

98.7

Latest

Satellite identification and parameters

Extended collection of information and parameters for CZ-6A DEB.

Object identification

Identified? True

Debris? True

Object name: CZ-6A DEB

International designator: 2022-151RH

Object number (NORAD): 54920

Object ID (CCSDS): 54920

Country: PEOPLES REPUBLIC OF CHINA (PRC)

Current information (Y/N): Y

RCS size: SMALL

Orbital parameters

Period: 98.192 minutes

Inclination: 98.6529 deg

SMA: 7050.338 km

Apoapsis: 727.923 km

Periapsis: 616.483 km

RAAN: 233.296 deg

Eccentricy: 0.0079032

Argument of periapsis: 268.5925 deg

Mean anomaly: 90.6222 deg

Mean motion: 14.66519487 rev/day

Mean motion (dot): 0.00009236 rev/day2

B* drag term: 0.0015987 1/REarth

Two-line elements (TLE)

Creation date: July 4, 2025, 5:16 p.m.

Reference frame: TEME

Reference center: EARTH

Epoch: July 4, 2025, 4:12 p.m. UTC

TLE line 0: 0 CZ-6A DEB

TLE line 1: 1 54920U 22151RH 25185.67548844 .00009236 00000-0 15987-2 0 9990

TLE line 2: 2 54920 98.6529 233.2960 0079032 268.5925 90.6222 14.66519487136118

Live tracking on map

Real-time ground track for satellite CZ-6A DEB.

In-orbit conjunctions

A list of the most updated potential collisions computed for object CZ-6A DEB.

Target Orbit TCA Probability of collision Miss distance Type
PEGASUS R/B LEO 2024-10-22 11:30:45 0.0001703275 238.0 (m) ROCKET BODY

Associated space launch

Chinese satellite reported for atmospheric/ocean/environmental/spatial parameter research purposes, details TBD.

CZ-6A DEB was lifted into orbit during the mission ‘Long March 6A | Yunhai 3’, on board a Long March 6A space rocket.

The launch took place on Nov. 11, 2022, 10:52 p.m. from Launch Complex 9A.

For more information about the launch, click the button.

Launch to space Long March 6A | Yunhai 3
Long March 6A | Yunhai 3

Agency: N/A

Status: Launch Successful

Launch date: Nov. 11, 2022, 10:52 p.m. UTC

Rocket: Long March 6A

Launch pad: Launch Complex 9A

Location: Taiyuan Satellite Launch Center, People's Republic of China

...

Latest news about this satellite

There are no fresh news available about this satellite. Check back as we update our databases every day.


Newsletter sign-up

Weekly statistics, charts and insights to help you stay on top of the space industry.